Flag for Germany Weather past 2 weeks in Norden, Lower Saxony, Germany

Now
63 °F

Partly sunny.


Feels Like: 63 °F
Forecast: 59 / 63 °F
Wind: 6 mph from Southwest

Location: Norderney

Current Time: Aug 29, 2014 at 12:04:02 PM

Latest Report: Aug 29, 2014 at 11:00 AM


Visibility: 6 mi

Pressure: 29.90 "Hg

Humidity: 89%

Dew point: 59 °F

Location of NordenLocation

Historic Weather in Norden — Graph

°F

Norden temperature yesterday

Maximum temperature yesterday: 72 °F (at 3:00 PM)
Minimum temperature yesterday: 54 °F (at 7:00 AM)
Average temperature yesterday: 63 °F

Past Weeks' High & Low Weather Summary

 TemperatureHumidityPressure
High72 °F (Aug 28, 3:00 PM)95% (Aug 28, 5:00 AM)30.05 "Hg (Aug 28, 5:00 AM)
Low51 °F (Aug 26, 7:00 AM)50% (Aug 21, 2:00 PM)29.41 "Hg (Aug 18, 9:00 AM)
Average59 °F76%29.84 "Hg
* Reported Aug 14 11:00 AM — Aug 29 11:00 AM, Norden, Weather by CustomWeather, © 2014

Note: Actual official high and low records may vary slightly from our data, if they occured in-between our weather recording intervals... More about our weather records

Advertising

Norden weather history for previous 24 hours

 ConditionsComfort  
Time TempWeatherWind HumidityBarometerVisibility
11:00 AM
Aug 29
63 °FPartly sunny.6 mph89%29.90 "Hg6 mi
10:00 AM62 °FLow clouds.7 mph91%29.89 "Hg5 mi
9:00 AM61 °FFog.7 mph93%29.89 "Hg4 mi
8:00 AM61 °FFog.6 mph94%29.88 "Hg4 mi
7:00 AM62 °FFog.6 mph94%29.88 "Hg2 mi
6:00 AM62 °FLow clouds.6 mph93%29.88 "Hg5 mi
5:00 AM62 °FPassing clouds.5 mph92%29.88 "Hg5 mi
4:00 AM63 °FFog.5 mph93%29.88 "Hg3 mi
3:00 AM63 °FFog.3 mph93%29.88 "Hg2 mi
2:00 AM63 °FOvercast.5 mph93%29.89 "Hg3 mi
1:00 AM63 °FDrizzle. Dense fog.5 mph91%29.90 "Hg1 mi
12:00 AM65 °FOvercast.6 mph85%29.90 "Hg5 mi
11:00 PM
Aug 28
64 °FOvercast.5 mph87%29.90 "Hg6 mi
10:00 PM64 °FFog.3 mph88%29.90 "Hg4 mi
9:00 PM64 °FOvercast.7 mph88%29.91 "Hg6 mi
8:00 PM65 °FOvercast.7 mph82%29.92 "Hg7 mi
7:00 PM71 °FPartly sunny.6 mph65%29.91 "Hg19 mi
6:00 PM71 °FPassing clouds.6 mph62%29.92 "Hg9 mi
5:00 PM70 °FPartly sunny.5 mph68%29.93 "Hg17 mi
4:00 PM72 °FPartly sunny.6 mph57%29.93 "Hg17 mi
3:00 PM72 °FScattered clouds.7 mph55%29.95 "Hg19 mi
2:00 PM71 °FScattered clouds.8 mph58%29.96 "Hg19 mi
1:00 PM69 °FScattered clouds.8 mph59%29.96 "Hg17 mi
12:00 PM68 °FPassing clouds.7 mph58%29.98 "Hg17 mi
Weather by CustomWeather, © 2014

See weather overviewHow to use our weather pages